Kingston, Jamaica

4:27 PM EST on October 21, 2017 (GMT -0500)
Norman Manley International

Weather History for MKJP - March, 2013

Change the Weather History Date:

Saturday, March 30, 2013

  Actual Average Record
Temperature  
Mean Temperature 80 °F -  
Max Temperature 85 °F 85 °F 89 °F (1999)
Min Temperature 75 °F 76 °F 72 °F (2016)
Cooling Degree Days 15    
Growing Degree Days 30 (Base 50)    
Moisture  
Dew Point 69 °F    
Average Humidity 71    
Maximum Humidity 83    
Minimum Humidity 54    
Precipitation  
Precipitation 0.01 in - - ()
Sea Level Pressure  
Sea Level Pressure 30.01 in    
Wind  
Wind Speed 8 mph ()    
Max Wind Speed 15 mph    
Max Gust Speed -    
Visibility 7.1 miles    
Events Rain    
Averages and records for this station are not official NWS values.
T = Trace of Precipitation, MM = Missing Value Source: Averaged Metar Reports

Daily Weather History Graph

Daily Weather History Graph

Search for Another Location

Airport or City:

Trip Planner

Search our weather history database for the weather conditions in past years. The results will help you decide how hot, cold, wet, or windy it might be!

Date:

Astronomy

Mar. 30, 2013 Rise Set
Actual Time 6:02 AM EST 6:20 PM EST
Civil Twilight 5:41 AM EST 6:42 PM EST
Nautical Twilight 5:15 AM EST 7:07 PM EST
Astronomical Twilight 4:50 AM EST 7:33 PM EST
Moon 9:50 PM EST (3/30) 8:27 AM EST (3/30)
Length of Visible Light 13h 00m
Length of Day
12h 17m
Waning Gibbous, 86% of the Moon is Illuminated
Mar 30
Waning Gibbous
Apr 2
Last Quarter
Apr 10
New
Apr 18
First Quarter
Apr 25
Full

Hourly Weather History & Observations

Time (EST) Temp. Heat Index Dew Point Humidity Pressure Visibility Wind Dir Wind Speed Gust Speed Precip Events Conditions
12:00 AM 80.6 °F 83.2 °F 68.0 °F 65% 30.01 in 6.2 mi NNE 9.2 mph - N/A   Scattered Clouds
1:00 AM 78 °F - 70 °F 70% 30.01 in 12 mi North 9.2 mph - -   Haze
1:00 AM 78.8 °F - 69.8 °F 74% 30.01 in 6.2 mi North 9.2 mph - N/A   Partly Cloudy
2:00 AM 78.8 °F - 66.2 °F 65% 29.98 in 6.2 mi North 6.9 mph - N/A   Partly Cloudy
3:00 AM 77.0 °F - 66.2 °F 69% 29.98 in 6.2 mi West 6.9 mph - N/A   Partly Cloudy
4:00 AM 77 °F - 66 °F 61% 29.98 in 12 mi North 9.2 mph - -   Haze
4:00 AM 77.0 °F - 66.2 °F 69% 29.98 in 6.2 mi North 9.2 mph - N/A   Partly Cloudy
5:00 AM 77.0 °F - 66.2 °F 69% 29.98 in 6.2 mi NNW 3.5 mph - N/A   Partly Cloudy
6:00 AM 77.0 °F - 66.2 °F 69% 29.98 in 6.2 mi NW 5.8 mph - N/A   Mostly Cloudy
7:00 AM 78 °F - 69 °F 67% 30.04 in 12 mi NW 4.6 mph - -   Haze
7:00 AM 78.8 °F - 69.8 °F 74% 30.04 in 6.2 mi NW 4.6 mph - N/A   Mostly Cloudy
8:00 AM 78.8 °F - 66.2 °F 65% 30.04 in 6.2 mi WNW 4.6 mph - N/A   Mostly Cloudy
9:00 AM 84.2 °F 86.6 °F 66.2 °F 55% 30.04 in 6.2 mi West 4.6 mph - N/A   Mostly Cloudy
10:00 AM 82 °F - 68 °F 54% 30.07 in 7 mi WSW 3.5 mph - -   Mostly Cloudy
10:00 AM 82.4 °F 85.4 °F 68.0 °F 62% 30.06 in 6.2 mi WSW 3.5 mph - N/A   Mostly Cloudy
11:00 AM 80.6 °F 84.6 °F 71.6 °F 74% 30.04 in 6.2 mi SE 13.8 mph - N/A   Mostly Cloudy
12:00 PM 78.8 °F - 69.8 °F 74% 30.04 in 6.2 mi SE 15.0 mph - N/A Rain Light Rain
1:00 PM 80 °F - 73 °F 73% 30.03 in 5 mi SE 15.0 mph - - Rain Light Rain Showers
1:00 PM 80.6 °F 85.4 °F 73.4 °F 79% 30.01 in 6.2 mi SE 15.0 mph - N/A   Mostly Cloudy
2:00 PM 77.0 °F - 71.6 °F 83% 30.01 in 6.2 mi SE 11.5 mph - N/A Rain Light Rain
3:00 PM 78.8 °F - 71.6 °F 78% 30.01 in 6.2 mi ENE 10.4 mph - N/A   Mostly Cloudy
4:00 PM 76 °F - 71 °F 81% 29.99 in 6 mi NNW 11.5 mph - -   Mostly Cloudy
4:00 PM 77.0 °F - 71.6 °F 83% 29.98 in 6.2 mi NNW 11.5 mph - N/A   Mostly Cloudy
5:00 PM 77.0 °F - 71.6 °F 83% 29.98 in 6.2 mi NW 6.9 mph - N/A   Mostly Cloudy
6:00 PM 78.8 °F - 68.0 °F 69% 29.98 in 6.2 mi North 8.1 mph - N/A   Mostly Cloudy
7:00 PM 77 °F - 70 °F 73% 30.01 in 12 mi North 12.7 mph - -   Haze
7:00 PM 77.0 °F - 69.8 °F 78% 30.01 in 6.2 mi North 12.7 mph - N/A   Mostly Cloudy
8:00 PM 78.8 °F - 69.8 °F 74% 30.01 in 6.2 mi North 9.2 mph - N/A   Scattered Clouds
9:00 PM 78.8 °F - 69.8 °F 74% 30.01 in 6.2 mi North 9.2 mph - N/A   Scattered Clouds
10:00 PM 78 °F - 69 °F 66% 30.04 in 12 mi North 8.1 mph - -   Haze
10:00 PM 77.0 °F - 68.0 °F 74% 30.04 in 6.2 mi North 8.1 mph - N/A   Mostly Cloudy
11:00 PM 77.0 °F - 68.0 °F 74% 30.04 in 6.2 mi NNW 5.8 mph - N/A   Mostly Cloudy